Regional Weather Roundup
Issued by NWS

Home | Current Version | Previous Version | Text Only | Print | Product List | Glossary Off
Versions: 1 2 3 4 5 6 7 8 9 10 11 12 13 14 15 16 17 18 19 20 21 22 23 24 25 26 27 28 29 30 31 32 33 34 35 36 37 38 39 40 41 42 43 44 45 46 47 48 49 50

000
ASUS43 KDTX 210010
RWRMI
MICHIGAN HOURLY REGIONAL WEATHER ROUNDUP
NATIONAL WEATHER SERVICE DETROIT/PONTIAC MI
800 PM EDT THU JUL 20 2017

NOTE: "FAIR" INDICATES FEW OR NO CLOUDS BELOW 12,000 FEET WITH NO
SIGNIFICANT WEATHER AND/OR OBSTRUCTION TO VISIBILITY.

MIZ047>049-052>055-059>063-066>070-074>076-081>083-210100-
SOUTHEAST LOWER MICHIGAN

CITY           SKY/WX    TMP DP  RH WIND       PRES   REMARKS
ADRIAN         MOSUNNY   82  69  64 W5        29.96F
6HR MIN TEMP:  80; 6HR MAX TEMP:  85;

ALMA           MOSUNNY   82  69  65 SW5       29.94R
6HR MIN TEMP:  82; 6HR MAX TEMP:  85;

ANN ARBOR      MOSUNNY   83  71  67 SW6       29.94F
BAD AXE        SUNNY     83  67  59 W5        29.92R
6HR MIN TEMP:  80; 6HR MAX TEMP:  85;

CARO           MOSUNNY   82  69  65 SW7       29.92R
DETROIT CITY   MOCLDY    85  67  54 W5        29.93S
6HR MIN TEMP:  84; 6HR MAX TEMP:  88;

DETROIT        PTSUNNY   84  70  62 S8        29.95S
6HR MIN TEMP:  83; 6HR MAX TEMP:  88;

FLINT          SUNNY     82  69  64 W7        29.94S
6HR MIN TEMP:  79; 6HR MAX TEMP:  84;

GROSSE ILE     PTCLDY    80  73  79 S8        29.93S
6HR MIN TEMP:  80; 6HR MAX TEMP:  87;

HILLSDALE      MOSUNNY   81  70  69 SW5       29.97S
HOWELL         SUNNY     82  69  64 SW3       29.95S
6HR MIN TEMP:  78; 6HR MAX TEMP:  84;


CITY           SKY/WX    TMP DP  RH WIND       PRES   REMARKS
JACKSON        SUNNY     83  69  62 W7        29.95F
6HR MIN TEMP:  79; 6HR MAX TEMP:  85;

LAMBERTVILLE   MOSUNNY   83  71  66 SW6       29.95S
6HR MIN TEMP:  81; 6HR MAX TEMP:  86;

LANSING        SUNNY     83  68  60 W6        29.95S
6HR MIN TEMP:  79; 6HR MAX TEMP:  85;

LAPEER         FAIR      82  67  60 W7        29.95R
6HR MIN TEMP:  82; 6HR MAX TEMP:  85;

MASON          SUNNY     83  71  67 W3        29.95S
MONROE         CLEAR     83  71  66 SW3       29.93F
6HR MIN TEMP:  82; 6HR MAX TEMP:  86;

MT. CLEMENS    PTCLDY    84  68  59 W7        29.92S
6HR MIN TEMP:  84; 6HR MAX TEMP:  88;

PONTIAC        MOSUNNY   82  69  64 W8        29.94S
6HR MIN TEMP:  80; 6HR MAX TEMP:  85;

PORT HOPE        N/A     77  69  76 SE6       29.89S
6HR MIN TEMP:  72; 6HR MAX TEMP:  78;

PORT HURON     CLEAR     84  68  58 W5        29.92S
TRI CITIES     MOSUNNY   84  71  65 SW10      29.92R
6HR MIN TEMP:  84; 6HR MAX TEMP:  88;

MIDLAND        FAIR      85  70  60 SW3       29.90S
6HR MIN TEMP:  85; 6HR MAX TEMP:  89;

TROY           SUNNY     85  67  54 SW5       29.95S
SAGINAW HB     MOSUNNY   82  68  61 SW8       29.91S
$$
MIZ043>046-050>051-056>058-064>065-071>073-077>080-210100-
SOUTHWEST LOWER MICHIGAN

CITY           SKY/WX    TMP DP  RH WIND       PRES   REMARKS
BATTLE CREEK   SUNNY     83  70  64 W6        29.96F
6HR MIN TEMP:  82; 6HR MAX TEMP:  86;

BENTON HARBOR  SUNNY     80  67  64 CALM      29.96S
6HR MIN TEMP:  79; 6HR MAX TEMP:  82;

BIG RAPIDS     SUNNY     82  64  54 NW7       29.94S
6HR MIN TEMP:  82; 6HR MAX TEMP:  86;

COLDWATER      MOSUNNY   83  72  69 NW7       29.96F
6HR MIN TEMP:  81; 6HR MAX TEMP:  85;

FREMONT        FAIR      81  65  58 NW6       29.95S
HOLLAND        SUNNY     76  68  76 W5        29.97S
6HR MIN TEMP:  76; 6HR MAX TEMP:  81;

GRAND RAPIDS   MOSUNNY   82  70  66 S9        29.95R
6HR MIN TEMP:  81; 6HR MAX TEMP:  86;

IONIA          FAIR      82  69  62 SW6       29.94S
6HR MIN TEMP:  80; 6HR MAX TEMP:  85;

KALAMAZOO      SUNNY     83  68  60 W7        29.96S
6HR MIN TEMP:  83; 6HR MAX TEMP:  86;

LUDINGTON      CLOUDY    73  67  83 SW6       29.95S
6HR MIN TEMP:  73; 6HR MAX TEMP:  81;

MARSHALL       SUNNY     83  71  68 SW7       29.95F
6HR MIN TEMP:  83; 6HR MAX TEMP:  87;

MOUNT PLEASANT MOSUNNY   86  63  45 W6        29.92S
6HR MIN TEMP:  85; 6HR MAX TEMP:  89;

MUSKEGON       MOSUNNY   77  67  71 W3        29.95S
6HR MIN TEMP:  77; 6HR MAX TEMP:  81;

SOUTH HAVEN    SUNNY     80  69  68 CALM      29.96F
$$
MIZ016>042-210100-
NORTHERN LOWER MICHIGAN

CITY           SKY/WX    TMP DP  RH WIND       PRES   REMARKS
ALPENA         SUNNY     75  67  76 SE7       29.91R
6HR MIN TEMP:  75; 6HR MAX TEMP:  84;

BEAVER ISLAND  SUNNY     74  65  73 SW6       29.92S
6HR MIN TEMP:  74; 6HR MAX TEMP:  79;

BELLAIRE       SUNNY     78  63  59 CALM      29.93S
6HR MIN TEMP:  78; 6HR MAX TEMP:  81;

CADILLAC       SUNNY     81  64  55 NW7       29.96S
CHARLEVOIX     SUNNY     75  63  66 SW7       29.96R
FRANKFORT      SUNNY     74  69  84 W5        29.95R
GAYLORD        SUNNY     79  58  48 NW5       29.95R
6HR MIN TEMP:  79; 6HR MAX TEMP:  83;

GRAYLING       SUNNY     78  60  52 NW5       29.96S
6HR MIN TEMP:  78; 6HR MAX TEMP:  84;

HARBOR SPRINGS SUNNY     71  68  92 SW5       29.93R
HOUGHTON LAKE  SUNNY     81  62  52 N9        29.95R
6HR MIN TEMP:  81; 6HR MAX TEMP:  86;

MANISTEE       SUNNY     75  68  78 W7        29.95R
OSCODA         SUNNY     80  67  64 S12       29.89S
6HR MIN TEMP:  74; 6HR MAX TEMP:  81;

PELLSTON       SUNNY     79  62  56 W6        29.92R
6HR MIN TEMP:  79; 6HR MAX TEMP:  82;

ROGERS CITY    SUNNY     74  60  62 CALM      29.91S
TRAVERSE CITY  MOSUNNY   81  60  48 N5        29.92R
6HR MIN TEMP:  81; 6HR MAX TEMP:  86;

$$
MIZ007>008-015-210100-
EASTERN UPPER MICHIGAN

CITY           SKY/WX    TMP DP  RH WIND       PRES   REMARKS
KINROSS        SUNNY     71  60  68 NW10      29.90F
6HR MIN TEMP:  71; 6HR MAX TEMP:  84;

MACKINAC ISLAN SUNNY     73  64  75 W7        29.90S
6HR MIN TEMP:  72; 6HR MAX TEMP:  75;

NEWBERRY       SUNNY     73  61  65 NW6       29.92R
6HR MIN TEMP:  73; 6HR MAX TEMP:  82;

S. S. MARIE    SUNNY     71  58  63 NW7       29.90S
6HR MIN TEMP:  71; 6HR MAX TEMP:  83;

MUNISING         N/A     73  65  75 N3        29.93S
6HR MIN TEMP:  73; 6HR MAX TEMP:  76;

$$
MIZ004>006-011>014-085-210100-
CENTRAL UPPER MICHIGAN

CITY           SKY/WX    TMP DP  RH WIND       PRES   REMARKS
MANISTIQUE     SUNNY     77  63  62 N7        29.91R
6HR MIN TEMP:  74; 6HR MAX TEMP:  84;

ESCANABA       MOSUNNY   82  67  60 NE6       29.91R
6HR MIN TEMP:  82; 6HR MAX TEMP:  88;

MENOMINEE      SUNNY     85  66  53 CALM      29.92R
6HR MIN TEMP:  80; 6HR MAX TEMP:  86;

SAWYER-GWINN   SUNNY     75  59  57 E7        29.96R
$$
MIZ001>003-009>011-084-210100-
WESTERN UPPER MICHIGAN

CITY           SKY/WX    TMP DP  RH WIND       PRES   REMARKS
IRON MOUNTAIN  SUNNY     83  58  42 N9        29.93R
6HR MIN TEMP:  83; 6HR MAX TEMP:  88;

HOUGHTON       SUNNY     74  61  63 W8        29.94R
6HR MIN TEMP:  73; 6HR MAX TEMP:  78;

COPPER HARBOR    N/A     63  56  78 N9        29.91S
6HR MIN TEMP:  63; 6HR MAX TEMP:  70;

IRONWOOD       SUNNY     79  63  57 W8        29.97F
6HR MIN TEMP:  77; 6HR MAX TEMP:  81;

$$

ABBREVIATIONS USED IN REMARKS
   TC - TEMPERATURE IN CELSIUS
  WCI - WIND CHILL INDEX
   HX - HEAT INDEX
  VSB - VISIBILITY





USA.gov is the U.S. government's official web portal to all federal, state and local government web resources and services.